Location: Arroyo de Valdeoliva
(40.1604°N, 4.9878°W)
Time: 11:43:52
(UTC+00:00)

ARIANE 6 FM1 Upper Stage - Pass Details

Date: 19 February 2026
Orbit: 523 x 607 km, 62.0° (Epoch: 8 March)

Event Time Altitude Azimuth Distance (km) Brightness Sun altitude
Rises 19:16:03 0° 321° (NW) 2,656 6.7 -15.2°
Reaches altitude 10° 19:18:14 10° 320° (NW) 1,766 5.7 -15.6°
Maximum altitude 19:22:10 71° 237° (WSW) 561 2.7 -16.3°
Enters shadow 19:25:49 12° 153° (SSE) 1,649 4.8 -17.0°
